Regional Weather Roundup
Issued by NWS Cleveland, OH

Home | Current Version | Previous Version | Text Only | Print | Product List | Glossary Off
Versions: 1 2 3 4 5 6 7 8 9 10 11 12 13 14 15 16 17 18 19 20 21 22 23 24 25 26 27 28 29 30 31 32 33 34 35 36 37 38 39 40 41 42 43 44 45 46 47 48 49 50

000
ASUS41 KCLE 262110
RWRCLE
OHIO REGIONAL WEATHER ROUNDUP
NATIONAL WEATHER SERVICE CLEVELAND, OH
500 PM EDT SUN APR 26 2015

NOTE: "FAIR" INDICATES FEW OR NO CLOUDS BELOW 12,000 FEET WITH NO
SIGNIFICANT WEATHER AND/OR OBSTRUCTIONS TO VISIBILITY.

OHZ001>008-015>018-024>027-034-035-043-044-262200-
   NORTHWEST OHIO

CITY           SKY/WX    TMP DP  RH WIND       PRES   REMARKS
DEFIANCE       SUNNY     59  30  33 MISG      29.88F
FINDLAY        SUNNY     58  29  33 N14G24    29.86F
TOLEDO EXPRESS MOSUNNY   57  27  31 N16       29.87F
TOLEDO EXEC    FAIR      57  28  33 NE10      29.88F
LIMA           SUNNY     56  33  42 N14G25    29.87S
$$

OHZ009>014-019>023-028>033-038-089-262200-
   NORTHEAST OHIO

CITY           SKY/WX    TMP DP  RH WIND       PRES   REMARKS
CLE-HOPKINS    SUNNY     53  29  39 N12       29.89F
CLE-LAKEFRONT  SUNNY     46  34  62 W7        29.87F
CUY CO. ARPT   NOT AVBL
LORAIN-ELYRIA  SUNNY     53  32  44 N15G23    29.87F
ASHTABULA      PTSUNNY   51  28  41 N13G20    29.85S
AKRON-CANTON   MOSUNNY   55  27  34 N16G24    29.82S
WOOSTER        SUNNY     54  28  36 N16G24    29.84S
MANSFIELD      SUNNY     53  28  38 N15       29.85S
YOUNGSTOWN     MOSUNNY   54  28  36 NW15G24   29.82R
$$

OHZ042-051>053-060>062-070>072-077>081-262200-
  SOUTHWEST OHIO

CITY           SKY/WX    TMP DP  RH WIND       PRES   REMARKS
CINC-COVINGTON MOSUNNY   58  35  42 N13       29.83F
CINC-LUNKEN    SUNNY     60  36  40 N9        29.84F
HAMILTON       SUNNY     60  38  43 N14       29.86S
DAYTON         MOSUNNY   57  34  41 N10       29.86S
WRIGHT-PAT AFB MOSUNNY   56  34  42 N15       29.84F
DAYTON GENERAL MOSUNNY   57  35  43 N10G23    29.84F
WILMINGTON     MOSUNNY   58  35  42 N12G22    29.83F
$$

OHZ036-037-039>041-045>050-054>059-063>069-073>076-082>088-262200-
  CENTRAL AND SOUTHEAST OHIO

CITY           SKY/WX    TMP DP  RH WIND       PRES   REMARKS
COLUMBUS       MOSUNNY   58  33  39 N16       29.81S
OSU AIRPORT    SUNNY     57  32  38 N13       29.82F
BOLTON FIELD   SUNNY     57  34  41 N14G21    29.83S
RICKENBACK AFB SUNNY     59  33  38 N12G23    29.81S
NEWARK         SUNNY     60  30  32 N14G21    29.80S
MARION         SUNNY     55  31  39 NE18      29.86S
LANCASTER      SUNNY     61  36  39 N10       29.80F
ZANESVILLE     SUNNY     59  28  30 NE14      29.79S
NEW PHILLY     MOSUNNY   61  31  32 NW15      29.79S
$$


USA.gov is the U.S. government's official web portal to all federal, state and local government web resources and services.